Regional Weather Roundup
Issued by NWS

Home | Current Version | Previous Version | Graphics & Text | Print | Product List | Glossary On
Versions: 1 2 3 4 5 6 7 8 9 10 11 12 13 14 15 16 17 18 19 20 21 22 23 24 25 26 27 28 29 30 31 32 33 34 35 36 37 38 39 40 41 42 43 44 45 46 47 48 49 50
000
ASUS43 KMKX 031520
RWRWI

WISCONSIN REGIONAL WEATHER ROUNDUP
NATIONAL WEATHER SERVICE MILWAUKEE/SULLIVAN WI
900 AM CST TUE MAR 03 2015

NOTE: "FAIR" INDICATES FEW OR NO CLOUDS BELOW 12,000 FEET WITH NO
SIGNIFICANT WEATHER AND/OR OBSTRUCTIONS TO VISIBILITY.

WIZ001-002-006>008-014>016-023>028-031600-
NORTHWEST WISCONSIN

CITY           SKY/WX    TMP DP  RH WIND       PRES   REMARKS
SUPERIOR ARPT  SNOW      21  19  91 SW6       29.68F VSB 1/2 WCI  13
ASHLAND        SNOW      21  17  84 S8        29.68F VSB 1/2 WCI  11
HAYWARD        HVY SNOW  20  15  81 S10       29.67F VSB 1/4 WCI   9
SIREN          SNOW      20  18  90 S5        29.69F VSB 1/4 WCI  14
CUMBERLAND     SNOW      19  18  93 S3        29.68F VSB 1/4
RICE LAKE      SNOW      21  18  91 CALM      29.70F VSB 1/4
CHETEK         SNOW      20  18  91 CALM      29.70F VSB 1/2
LADYSMITH      SNOW      22  19  88 S5        29.70S VSB 1/2 WCI  15
EAU CLAIRE     SNOW      21  19  92 S3        29.70F VSB 1/4
MENOMONIE      SNOW      22  19  88 CALM      29.71F VSB 1/2
NEW RICHMOND   LGT SNOW  21  19  90 CALM      29.69F VSB 3/4
OSCEOLA        SNOW      21  21 100 SE3       29.72F VSB 1/2
$$

WIZ003>005-009-010-017-018-031600-
NORTH CENTRAL WISCONSIN

CITY           SKY/WX    TMP DP  RH WIND       PRES   REMARKS
MANITOWISH WTR CLOUDY    19  13  78 S9        29.65S WCI   8
ARBOR VITAE    CLOUDY    22  16  78 S9        29.65F WCI  11
WOODRUFF       CLOUDY    22  16  78 S9        29.65F WCI  11
RHINELANDER    SNOW      19  15  84 S5        29.66F VSB 1/4 WCI  12
EAGLE RIVER    PTSUNNY   19  13  74 S8        29.67F WCI   9
LAND O LAKES   CLOUDY    20  14  75 S7        29.66F WCI  11
PHILLIPS       SNOW      19  16  89 S5        29.66F VSB 1/2 WCI  12
TOMAHAWK       SNOW      19  15  85 CALM      29.68F VSB 1/2
MEDFORD        LGT SNOW  19  16  85 SE7       29.67F WCI  10
MERRILL        LGT SNOW  20  17  88 SE6       29.68F WCI  13
$$

WIZ029-030-035-036-043>047-031600-
CENTRAL WISCONSIN

CITY           SKY/WX    TMP DP  RH WIND       PRES   REMARKS
WAUSAU         LGT SNOW  20  18  92 SE6       29.67F FOG     WCI  12
MOSINEE        CLOUDY    19  19 100 SE9       29.69F WCI   9
MARSHFIELD     LGT SNOW  21  18  88 S10       29.69S FOG     WCI  10
STEVENS POINT  LGT SNOW  20  17  89 SE6       29.70F WCI  12
WAUPACA        LGT SNOW  25  21  86 SE6       29.72F VSB 3/4 WCI  18
WAUTOMA        CLOUDY    23  21  93 SE6       29.72F FOG     WCI  16
WISC RAPIDS    CLOUDY    22  18  85 S5        29.72F FOG     WCI  16
CAMP DOUGLAS   FRZ DRZL  23  23 100 SE7       29.70F FOG     WCI  15
$$

WIZ011>013-019>022-031-037>040-048>050-031600-
NORTHEAST WISCONSIN

CITY           SKY/WX    TMP DP  RH WIND       PRES   REMARKS
ANTIGO         LGT SNOW  19  16  91 SE6       29.68F VSB 1   WCI  10
SHAWANO        SNOW      26  22  86 S5        29.74F VSB 1/2 WCI  20
OCONTO         CLOUDY    26  26  99 S9        29.76F VSB 1   WCI  17
STURGEON BAY   CLOUDY    27  25  93 S14G22    29.77F WCI  15
GREEN BAY      SNOW      26  24  92 S9        29.76F VSB 1/4 WCI  17
MANITOWOC      SNOW      28  27  96 S18G25    29.78F VSB 1/2 WCI  15
APPLETON       LGT SNOW  25  23  93 SE12      29.72F VSB 3/4 WCI  14
CLINTONVILLE   SNOW      25  23  93 S8        29.71F VSB 1/2 WCI  16
OSHKOSH        LGT SNOW  25  22  88 S12       29.73F VSB 3/4 WCI  14
$$

WIZ032>034-041-042-053>061-031600-
SOUTHWEST WISCONSIN

CITY           SKY/WX    TMP DP  RH WIND       PRES   REMARKS
LA CROSSE      CLOUDY    25  23  92 S5        29.71F FOG     WCI  19
SPARTA         CLOUDY    24  20  85 S3        29.73R FOG
VIROQUA        CLOUDY    23  23 100 SE9       29.67F WCI  13
BOSCOBEL       CLOUDY    26  23  88 CALM      29.71F FOG
PRAIRIE DU CHI MIX PCPN  26  24  92 E3        29.70F
PLATTEVILLE    CLOUDY    28  27  96 S10       29.69F WCI  19
$$

WIZ056-057-062-063-064-067-068-031600-
SOUTH CENTRAL WISCONSIN

CITY           SKY/WX    TMP DP  RH WIND       PRES   REMARKS
REEDSBURG      MIX PCPN  23  21  93 S5        29.70F VSB 1   WCI  17
BARABOO/DELLS  MIX PCPN  23  21  91 S6        29.70F WCI  16
LONE ROCK      FOG       25  23  92 E5        29.70F VSB 1   WCI  19
MINERAL POINT  LGT RAIN  28  27  93 S9        29.68F WCI  20
MADISON        LGT SNOW  25  22  88 S13       29.71F VSB 1   WCI  14
MIDDLETON      CLOUDY    27  24  87 SE7       29.70F WCI  19
WATERTOWN      CLOUDY    25  23  93 SE9       29.71F FOG     WCI  15
MONROE         CLOUDY    28  28 100 S16G23    29.68F WCI  17
JANESVILLE     NOT AVBL
$$

WIZ051-052-058>065-066-070>072-031600-
SOUTHEAST WISCONSIN

CITY           SKY/WX    TMP DP  RH WIND       PRES   REMARKS
MILWAUKEE      LGT SNOW  27  24  89 S13G22    29.76F VSB 3/4 WCI  16
WAUKESHA       LGT SNOW  23  21  93 SE12      29.76F VSB 1   WCI  12
MILWAUKEE/TIMM LGT SNOW  27  23  86 SE10      29.77F VSB 3/4 WCI  17
RACINE         FRZ RAIN  29  25  85 S20G29    29.76F FOG     WCI  16
BURLINGTON     LGT SNOW  25  23  93 CALM      29.75S VSB 1
KENOSHA        FRZ RAIN  29  27  92 S15G24    29.76F FOG     WCI  18
FOND DU LAC    LGT SNOW  26  22  84 S10       29.70F VSB 1   WCI  16
SHEBOYGAN      LGT SNOW  28  25  88 S14G20    29.73F VSB 1   WCI  17
WEST BEND      LGT SNOW  27  23  86 SE6       29.74F WCI  20
JUNEAU         LGT SNOW  25  22  89 SE13      29.72F WCI  13
$$

LSZ147-162-031600-
LAKE SUPERIOR

STATION/POSITION TIME  TEMP    WIND        PRES    WAVE
                       AIR SEA DIR/SP/G            HT/PER
                 (UTC) (F)     (DEG/KT/KT) (MB)    (FT/S)
DEVILS ISLAND    1500   21     190/  8/ 11 1006.0F
PORT WING        1440   21     190/  8/ 10 1005.4F
SAXON HARBOR     1400   23      CALM  /  2 1006.1
$$

LMZ867-665-643>646-031600-
LAKE MICHIGAN

STATION/POSITION TIME  TEMP    WIND        PRES    WAVE
                       AIR SEA DIR/SP/G            HT/PER
                 (UTC) (F)     (DEG/KT/KT) (MB)    (FT/S)
NORTHPORT PIER   1406   29     150/ 11/ 22 1010.5F
SISTER BAY       1413   29     180/ 17/ 20   N/A
KEWAUNEE LAKESHO 1400   28                 1009.5
SHEBOYGAN LAKESH 1500   29     170/ 26/ 28 1008.7F
PORT WASHINGTON  1501   29     170/ 20/ 24 1008.5F
MILWAUKEE LAKESH 1500   28     150/ 23/ 26   N/A
KENOSHA   LAKESH 1500   29     170/ 22/ 31 1007.1F
$$

TC  - TEMPERATURE IN CELSIUS
VSB - VISIBILITY IN STATUTE MILES
WCI - WIND CHILL INDEX
HX  - HEAT INDEX



USA.gov is the U.S. government's official web portal to all federal, state and local government web resources and services.